| time (UTC) | temp F | wind direction | speed MPH | gust MPH | rain 1hr in | rain 24hr in | rain mn in | humidity % | barometer mb |
| 20260506071548 | 67 | 84 | 0.0 | 0.0 | 0.00 | 0.00 | 0.00 | 82 | 1019.0 |
| 20260506061547 | 68 | 76 | 0.0 | 2.0 | 0.00 | 0.00 | 0.00 | 81 | 1019.0 |
| 20260506041547 | 68 | 82 | 0.0 | 2.0 | 0.00 | 0.00 | 0.00 | 80 | 1021.0 |
| 20260506031547 | 68 | 162 | 0.0 | 0.0 | 0.00 | 0.00 | 0.00 | 79 | 1021.0 |
| 20260506021547 | 68 | 318 | 0.0 | 2.0 | 0.00 | 0.00 | 0.00 | 77 | 1021.0 |
| 20260506011547 | 69 | 75 | 2.0 | 3.0 | 0.00 | 0.00 | 0.00 | 77 | 1021.0 |
| 20260506001547 | 69 | 129 | 1.0 | 1.0 | 0.00 | 0.00 | 0.00 | 79 | 1020.0 |
| 20260505231548 | 71 | 292 | 2.0 | 2.0 | 0.00 | 0.00 | 0.00 | 72 | 1020.0 |
| 20260505221550 | 72 | 151 | 3.0 | 3.0 | 0.00 | 0.00 | 0.00 | 68 | 1020.0 |
| 20260505211548 | 73 | 176 | 3.0 | 3.0 | 0.00 | 0.00 | 0.00 | 66 | 1020.0 |
| 20260505201547 | 74 | 166 | 3.0 | 4.0 | 0.00 | 0.00 | 0.00 | 64 | 1021.0 |
| 20260505191547 | 76 | 238 | 4.0 | 5.0 | 0.00 | 0.00 | 0.00 | 59 | 1021.0 |
| 20260505181547 | 77 | 240 | 3.0 | 4.0 | 0.00 | 0.00 | 0.00 | 58 | 1022.0 |
| 20260505171548 | 76 | 342 | 2.0 | 3.0 | 0.00 | 0.00 | 0.00 | 61 | 1022.0 |
| 20260505161548 | 75 | 139 | 2.0 | 4.0 | 0.00 | 0.00 | 0.00 | 59 | 1022.0 |
| 20260505151548 | 78 | 235 | 2.0 | 6.0 | 0.00 | 0.00 | 0.00 | 50 | 1022.0 |
| 20260505121548 | 72 | 82 | 0.0 | 0.0 | 0.00 | 0.00 | 0.00 | 66 | 1022.0 |
| 20260505111551 | 61 | 65 | 0.0 | 0.0 | 0.00 | 0.00 | 0.00 | 92 | 1021.0 |
| 20260505101548 | 59 | 69 | 0.0 | 0.0 | 0.00 | 0.00 | 0.00 | 90 | 1021.0 |
| 20260505091547 | 61 | 72 | 0.0 | 0.0 | 0.00 | 0.00 | 0.00 | 88 | 1020.0 |
| 20260505081549 | 62 | 75 | 0.0 | 0.0 | 0.00 | 0.00 | 0.00 | 84 | 1020.0 |